This is the latest recevied weather packets stored in our database for station/object K5IDL. If no packets are shown the sender has not sent any weather packets the latest 10 day(s).
| Time | Temp. | Humidity | Pressure | Rain* | Wind** | Luminosity | Snow |
|---|---|---|---|---|---|---|---|
| 1788038179 | 37.78° C | 34% | 1015.8 hPa | 0 mm | - | 34 W/m² | - |
| 1788037879 | 37.78° C | 34% | 1015.8 hPa | 0 mm | - | 56 W/m² | - |
| 1788037574 | 37.22° C | 35% | 1016 hPa | 0 mm | - | 45 W/m² | - |
| 1788037269 | 37.22° C | 37% | 1016.2 hPa | 0 mm | - | 39 W/m² | - |
| 1788036963 | 37.78° C | 37% | 1016.1 hPa | 0 mm | - | 32 W/m² | - |
| 1788036659 | 37.78° C | 35% | 1016.1 hPa | 0 mm | - | 52 W/m² | - |
| 1788036355 | 37.78° C | 34% | 1016.2 hPa | 0 mm | - | 61 W/m² | - |
| 1788036049 | 38.33° C | 35% | 1016.4 hPa | 0 mm | - | 54 W/m² | - |
| 1788035748 | 37.78° C | 35% | 1016.4 hPa | 0 mm | - | 78 W/m² | - |
| 1788035444 | 37.78° C | 36% | 1016.5 hPa | 0 mm | - | 63 W/m² | - |
| 1788035142 | 37.22° C | 36% | 1016.5 hPa | 0 mm | - | 68 W/m² | - |
| 1788034835 | 38.33° C | 34% | 1016.5 hPa | 0 mm | - | 60 W/m² | - |
| 1788034532 | 37.78° C | 36% | 1016.6 hPa | 0 mm | - | 61 W/m² | - |
| 1788034227 | 37.78° C | 36% | 1016.6 hPa | 0 mm | - | 49 W/m² | - |
| 1788033926 | 38.33° C | 36% | 1016.9 hPa | 0 mm | - | 135 W/m² | - |
| 1788033621 | 38.33° C | 36% | 1017.1 hPa | 0 mm | - | 79 W/m² | - |
| 1788033315 | 38.33° C | 36% | 1017 hPa | 0 mm | - | 97 W/m² | - |
| 1788033011 | 37.78° C | 37% | 1017.1 hPa | 0 mm | - | 357 W/m² | - |
| 1788032710 | 37.78° C | 36% | 1017 hPa | 0 mm | - | 62 W/m² | - |
| 1788032406 | 37.78° C | 37% | 1017.1 hPa | 0 mm | - | 81 W/m² | - |
| 1788032101 | 37.78° C | 35% | 1017.4 hPa | 0 mm | - | 64 W/m² | - |
| 1788031796 | 38.33° C | 36% | 1017.3 hPa | 0 mm | - | 63 W/m² | - |
| 1788031491 | 38.33° C | 36% | 1017.5 hPa | 0 mm | - | 70 W/m² | - |
| 1788031191 | 37.78° C | 38% | 1017.6 hPa | 0 mm | - | 59 W/m² | - |
| 1788030891 | 37.78° C | 37% | 1017.4 hPa | 0 mm | - | 288 W/m² | - |
* Rain latest hour (hover to see other rain measurements)
** Current wind speed in m/s (hover to see current wind gust speed)